QPF
0.01 0.01 0.01 0.01 0.01 0.01 0.01 0.01 0.01 0.01 0.03 0.03 0.03 0.03 0.03 0.04 0.03 0.03 0.02 0.03 0.05 0.05 0.07 0.07 0.04 0.05 0.06 0.07 0.04 0.03 0.03 0.02 0.01 0.01 0.01 0.01 0.01 0.01 0.02 0.02 0.02 0.03 0.03 0.03
0.01 0.01 0.01 0.01 0.02 0.02 0.02 0.01 0.01 0.02 0.03 0.05 0.05 0.05 0.06 0.05 0.04 0.04 0.03 0.03 0.05 0.06 0.05 0.04 0.03 0.04 0.09 0.13 0.09 0.05 0.04 0.02 0.02 0.02 0.03 0.04 0.04 0.03 0.03 0.03 0.03 0.03 0.04 0.04
0.01 0.01 0.02 0.03 0.03 0.03 0.04 0.03 0.02 0.02 0.03 0.04 0.05 0.07 0.08 0.06 0.06 0.06 0.04 0.03 0.06 0.09 0.07 0.07 0.03 0.04 0.08 0.13 0.14 0.09 0.05 0.04 0.03 0.03 0.04 0.05 0.05 0.04 0.03 0.02 0.02 0.03 0.03 0.03
0.01 0.03 0.04 0.04 0.04 0.04 0.06 0.06 0.04 0.04 0.05 0.05 0.04 0.05 0.06 0.06 0.08 0.08 0.05 0.03 0.06 0.11 0.07 0.07 0.08 0.06 0.08 0.12 0.12 0.12 0.08 0.05 0.05 0.04 0.04 0.04 0.04 0.04 0.04 0.04 0.04 0.04 0.03 0.02
0.02 0.03 0.05 0.07 0.06 0.06 0.07 0.09 0.08 0.07 0.07 0.07 0.05 0.05 0.05 0.05 0.06 0.05 0.04 0.05 0.07 0.09 0.09 0.06 0.07 0.09 0.09 0.11 0.09 0.10 0.09 0.07 0.07 0.06 0.05 0.05 0.05 0.05 0.05 0.06 0.06 0.05 0.03 0.03
0.05 0.06 0.07 0.08 0.06 0.05 0.08 0.11 0.12 0.10 0.06 0.08 0.07 0.06 0.05 0.04 0.04 0.05 0.05 0.05 0.05 0.06 0.08 0.06 0.05 0.06 0.09 0.09 0.09 0.10 0.10 0.07 0.07 0.09 0.08 0.06 0.04 0.04 0.05 0.06 0.07 0.06 0.05 0.05
0.05 0.06 0.05 0.06 0.05 0.04 0.09 0.11 0.10 0.09 0.06 0.05 0.06 0.05 0.04 0.04 0.04 0.04 0.03 0.04 0.04 0.05 0.05 0.04 0.05 0.06 0.06 0.07 0.09 0.09 0.09 0.08 0.07 0.08 0.08 0.06 0.05 0.05 0.06 0.07 0.07 0.08 0.07 0.06
0.05 0.06 0.06 0.05 0.04 0.04 0.07 0.08 0.08 0.07 0.06 0.05 0.05 0.05 0.05 0.03 0.02 0.03 0.04 0.05 0.04 0.05 0.05 0.04 0.05 0.07 0.07 0.07 0.07 0.08 0.07 0.09 0.10 0.09 0.08 0.07 0.07 0.06 0.06 0.06 0.06 0.06 0.06 0.07
0.06 0.07 0.07 0.06 0.06 0.04 0.04 0.06 0.07 0.06 0.05 0.05 0.04 0.05 0.06 0.06 0.07 0.09 0.11 0.10 0.09 0.10 0.09 0.07 0.07 0.06 0.07 0.06 0.08 0.08 0.07 0.08 0.09 0.10 0.10 0.09 0.08 0.07 0.06 0.06 0.07 0.07 0.07 0.07
0.05 0.05 0.05 0.06 0.06 0.05 0.05 0.07 0.07 0.06 0.05 0.04 0.04 0.04 0.05 0.07 0.06 0.05 0.05 0.08 0.10 0.10 0.09 0.05 0.04 0.04 0.05 0.04 0.03 0.04 0.04 0.05 0.07 0.08 0.09 0.09 0.08 0.07 0.05 0.04 0.04 0.04 0.05 0.04
0.05 0.05 0.05 0.04 0.04 0.03 0.05 0.06 0.05 0.04 0.04 0.04 0.05 0.05 0.04 0.03 0.02 0.01 0.02 0.03 0.02 0.02 0.02 0.02 0.02 0.03 0.02 0.03 0.02 0.02 0.02 0.03 0.04 0.05 0.06 0.07 0.07 0.06 0.05 0.04 0.03 0.03 0.03 0.04
0.05 0.05 0.06 0.04 0.03 0.04 0.07 0.06 0.04 0.03 0.04 0.07 0.06 0.04 0.03 0.02 0.02 0.02 0.02 0.02 0.02 0.02 0.02 0.02 0.03 0.03 0.03 0.03 0.03 0.02 0.02 0.02 0.03 0.04 0.04 0.04 0.05 0.05 0.05 0.03 0.03 0.03 0.04 0.04
0.05 0.05 0.04 0.04 0.04 0.05 0.06 0.05 0.03 0.03 0.03 0.08 0.07 0.04 0.03 0.03 0.03 0.03 0.03 0.02 0.03 0.02 0.02 0.03 0.03 0.04 0.04 0.04 0.04 0.04 0.03 0.02 0.02 0.04 0.04 0.04 0.05 0.03 0.03 0.03 0.03 0.03 0.05 0.05
0.06 0.06 0.06 0.06 0.06 0.05 0.03 0.02 0.02 0.03 0.05 0.08 0.06 0.05 0.04 0.04 0.04 0.03 0.03 0.03 0.02 0.02 0.03 0.02 0.02 0.03 0.04 0.06 0.06 0.05 0.04 0.04 0.03 0.04 0.04 0.05 0.05 0.03 0.02 0.02 0.02 0.03 0.05 0.05
0.05 0.05 0.05 0.03 0.02 0.02 0.03 0.01 0.01 0.03 0.06 0.07 0.07 0.07 0.05 0.04 0.03 0.03 0.03 0.02 0.02 0.03 0.03 0.03 0.03 0.04 0.04 0.05 0.05 0.05 0.05 0.05 0.05 0.05 0.05 0.05 0.04 0.03 0.03 0.03 0.03 0.03 0.04 0.04
0.02 0.02 0.03 0.02 0.01 0.01 0.01 0.01 0.02 0.04 0.05 0.06 0.08 0.07 0.06 0.05 0.04 0.04 0.04 0.03 0.02 0.03 0.03 0.03 0.03 0.04 0.05 0.06 0.07 0.06 0.06 0.08 0.08 0.06 0.05 0.04 0.03 0.03 0.04 0.04 0.04 0.04 0.05 0.04
0.01 0.02 0.02 0.01 0.01 0.01 0.01 0.01 0.02 0.02 0.03 0.04 0.05 0.05 0.04 0.05 0.06 0.05 0.06 0.04 0.03 0.03 0.03 0.03 0.03 0.03 0.04 0.05 0.06 0.06 0.07 0.07 0.07 0.06 0.04 0.03 0.03 0.03 0.05 0.05 0.05 0.05 0.04 0.04
0.01 0.02 0.02 0.01 0.01 0.01 0.01 0.01 0.02 0.02 0.02 0.03 0.04 0.04 0.05 0.06 0.05 0.04 0.05 0.04 0.04 0.04 0.04 0.04 0.03 0.03 0.04 0.05 0.05 0.06 0.07 0.06 0.05 0.05 0.05 0.03 0.03 0.03 0.03 0.04 0.04 0.04 0.04 0.04
0.01 0.02 0.02 0.02 0.01 0.01 0.01 0.01 0.02 0.02 0.02 0.03 0.04 0.05 0.05 0.05 0.03 0.03 0.03 0.03 0.04 0.04 0.03 0.03 0.04 0.04 0.03 0.04 0.05 0.05 0.06 0.07 0.05 0.05 0.06 0.05 0.04 0.03 0.03 0.04 0.04 0.05 0.04 0.04
0.01 0.02 0.03 0.03 0.02 0.02 0.02 0.01 0.01 0.02 0.02 0.02 0.02 0.03 0.02 0.02 0.02 0.02 0.02 0.02 0.02 0.03 0.02 0.02 0.03 0.04 0.03 0.02 0.04 0.04 0.05 0.06 0.06 0.06 0.06 0.06 0.05 0.04 0.04 0.04 0.05 0.05 0.04 0.04
0.01 0.01 0.02 0.03 0.03 0.03 0.02 0.02 0.01 0.01 0.01 0.02 0.03 0.02 0.02 0.02 0.02 0.01 0.01 0.01 0.02 0.02 0.02 0.02 0.02 0.02 0.02 0.02 0.03 0.03 0.03 0.04 0.06 0.06 0.06 0.06 0.05 0.04 0.04 0.04 0.04 0.04 0.04 0.03
0.02 0.03 0.04 0.03 0.03 0.02 0.02 0.02 0.01 0.01 0.01 0.02 0.02 0.01 0.01 0.01 0.01 0.01 0.01 0.01 0.01 0.02 0.02 0.02 0.02 0.02 0.02 0.02 0.02 0.03 0.03 0.02 0.03 0.05 0.05 0.05 0.04 0.03 0.03 0.03 0.03 0.03 0.03 0.02
0.03 0.06 0.08 0.07 0.04 0.03 0.02 0.01 0.01 0.01 0.01 0.01 0.01 0.01 0.01 0.01 0.01 0.01 0.01 0.01 0.01 0.01 0.01 0.01 0.02 0.02 0.02 0.01 0.01 0.02 0.02 0.02 0.02 0.03 0.04 0.04 0.03 0.03 0.02 0.02 0.02 0.02 0.02 0.02
0.02 0.05 0.07 0.08 0.07 0.05 0.04 0.02 0.01 0.00 0.00 0.00 0.00 0.01 0.01 0.01 0.01 0.01 0.01 0.02 0.02 0.01 0.01 0.01 0.01 0.01 0.01 0.01 0.02 0.02 0.02 0.02 0.02 0.02 0.02 0.02 0.02 0.02 0.02 0.02 0.02 0.02 0.02 0.02
0.02 0.02 0.02 0.04 0.05 0.05 0.04 0.03 0.01 0.00 0.00 0.00 0.00 0.00 0.01 0.01 0.01 0.01 0.01 0.01 0.01 0.00 0.00 0.00 0.00 0.01 0.01 0.01 0.02 0.02 0.02 0.02 0.02 0.01 0.01 0.01 0.02 0.02 0.02 0.02 0.02 0.02 0.02 0.02
0.02 0.02 0.02 0.02 0.02 0.02 0.02 0.02 0.01 0.01 0.00 0.00 0.00 0.00 0.00 0.01 0.01 0.01 0.01 0.00 0.00 0.00 0.00 0.00 0.00 0.00 0.01 0.01 0.02 0.02 0.03 0.03 0.03 0.03 0.03 0.03 0.03 0.02 0.02 0.02 0.01 0.01 0.01 0.01
0.02 0.02 0.01 0.01 0.02 0.01 0.01 0.01 0.01 0.01 0.01 0.01 0.00 0.00 0.00 0.01 0.01 0.01 0.01 0.00 0.00 0.00 0.00 0.01 0.00 0.00 0.00 0.01 0.01 0.01 0.01 0.01 0.02 0.03 0.03 0.03 0.02 0.01 0.01 0.01 0.01 0.01 0.01 0.01
MSLP
1011.37 1010.80 1010.20 1009.57 1008.94 1008.30 1007.66 1006.99 1006.30 1005.60 1004.89 1004.21 1003.60 1003.10 1002.77 1002.63 1002.70 1002.97 1003.44 1004.06 1004.80 1005.62 1006.46 1007.29 1008.10 1008.87 1009.59 1010.25 1010.85 1011.39 1011.86 1012.26 1012.58 1012.84 1013.02 1013.16 1013.27 1013.36 1013.47 1013.59 1013.76 1013.96 1014.20 1014.47
1011.18 1010.68 1010.09 1009.45 1008.78 1008.12 1007.47 1006.84 1006.24 1005.68 1005.17 1004.71 1004.33 1004.04 1003.86 1003.79 1003.85 1004.03 1004.32 1004.71 1005.20 1005.76 1006.38 1007.04 1007.74 1008.45 1009.18 1009.89 1010.57 1011.21 1011.77 1012.25 1012.63 1012.92 1013.13 1013.26 1013.35 1013.41 1013.48 1013.57 1013.69 1013.86 1014.06 1014.30
1011.05 1010.60 1010.05 1009.43 1008.78 1008.13 1007.51 1006.94 1006.44 1006.02 1005.68 1005.42 1005.23 1005.11 1005.05 1005.03 1005.06 1005.13 1005.24 1005.41 1005.64 1005.95 1006.34 1006.82 1007.39 1008.04 1008.75 1009.50 1010.24 1010.96 1011.61 1012.17 1012.62 1012.96 1013.19 1013.33 1013.42 1013.47 1013.52 1013.58 1013.67 1013.80 1013.97 1014.17
1011.01 1010.62 1010.13 1009.55 1008.93 1008.31 1007.74 1007.23 1006.82 1006.52 1006.31 1006.20 1006.15 1006.15 1006.15 1006.15 1006.13 1006.09 1006.04 1006.01 1006.01 1006.09 1006.27 1006.58 1007.03 1007.60 1008.28 1009.03 1009.82 1010.60 1011.32 1011.94 1012.46 1012.85 1013.12 1013.30 1013.41 1013.47 1013.52 1013.58 1013.66 1013.77 1013.91 1014.07
1011.06 1010.73 1010.28 1009.76 1009.18 1008.61 1008.08 1007.63 1007.28 1007.05 1006.93 1006.90 1006.94 1006.99 1007.02 1007.01 1006.94 1006.80 1006.61 1006.41 1006.23 1006.13 1006.14 1006.30 1006.62 1007.11 1007.75 1008.49 1009.29 1010.10 1010.86 1011.53 1012.10 1012.54 1012.87 1013.09 1013.24 1013.34 1013.42 1013.50 1013.59 1013.71 1013.83 1013.97
1011.14 1010.85 1010.45 1009.98 1009.46 1008.93 1008.44 1008.03 1007.72 1007.52 1007.43 1007.44 1007.50 1007.56 1007.59 1007.55 1007.43 1007.21 1006.93 1006.61 1006.30 1006.06 1005.95 1005.99 1006.21 1006.62 1007.19 1007.89 1008.66 1009.46 1010.23 1010.92 1011.52 1012.00 1012.38 1012.66 1012.87 1013.03 1013.17 1013.30 1013.43 1013.57 1013.71 1013.84
1011.16 1010.91 1010.56 1010.15 1009.68 1009.19 1008.74 1008.35 1008.05 1007.86 1007.78 1007.78 1007.82 1007.87 1007.88 1007.82 1007.66 1007.40 1007.05 1006.67 1006.29 1005.97 1005.77 1005.72 1005.85 1006.17 1006.66 1007.28 1007.99 1008.74 1009.47 1010.15 1010.75 1011.26 1011.67 1012.01 1012.29 1012.52 1012.74 1012.94 1013.13 1013.31 1013.48 1013.63
1011.08 1010.85 1010.55 1010.19 1009.77 1009.34 1008.92 1008.56 1008.27 1008.07 1007.97 1007.95 1007.97 1007.99 1007.98 1007.91 1007.73 1007.47 1007.11 1006.71 1006.31 1005.95 1005.70 1005.59 1005.63 1005.86 1006.24 1006.75 1007.36 1008.01 1008.67 1009.30 1009.87 1010.38 1010.82 1011.20 1011.54 1011.85 1012.14 1012.42 1012.68 1012.93 1013.15 1013.34
1010.84 1010.65 1010.40 1010.09 1009.74 1009.36 1008.99 1008.66 1008.38 1008.19 1008.07 1008.03 1008.03 1008.04 1008.03 1007.95 1007.80 1007.56 1007.24 1006.86 1006.47 1006.12 1005.84 1005.67 1005.64 1005.76 1006.02 1006.40 1006.87 1007.40 1007.95 1008.48 1009.00 1009.48 1009.92 1010.33 1010.71 1011.08 1011.45 1011.80 1012.13 1012.44 1012.71 1012.94
1010.48 1010.32 1010.12 1009.87 1009.59 1009.28 1008.97 1008.68 1008.44 1008.26 1008.14 1008.09 1008.09 1008.11 1008.11 1008.07 1007.96 1007.77 1007.51 1007.20 1006.85 1006.52 1006.23 1006.02 1005.92 1005.93 1006.06 1006.29 1006.61 1006.98 1007.40 1007.83 1008.26 1008.68 1009.10 1009.51 1009.92 1010.33 1010.74 1011.14 1011.52 1011.88 1012.20 1012.47
1010.04 1009.91 1009.77 1009.59 1009.39 1009.15 1008.91 1008.68 1008.48 1008.33 1008.24 1008.21 1008.23 1008.27 1008.30 1008.31 1008.27 1008.16 1007.98 1007.73 1007.45 1007.15 1006.87 1006.63 1006.46 1006.37 1006.36 1006.45 1006.61 1006.83 1007.10 1007.41 1007.74 1008.10 1008.47 1008.86 1009.26 1009.68 1010.11 1010.53 1010.94 1011.33 1011.68 1011.98
1009.58 1009.50 1009.41 1009.31 1009.17 1009.02 1008.85 1008.69 1008.54 1008.44 1008.39 1008.40 1008.45 1008.53 1008.61 1008.68 1008.71 1008.68 1008.59 1008.42 1008.20 1007.94 1007.67 1007.42 1007.19 1007.01 1006.90 1006.86 1006.88 1006.96 1007.10 1007.29 1007.52 1007.80 1008.11 1008.46 1008.84 1009.24 1009.65 1010.07 1010.48 1010.87 1011.22 1011.54
1009.16 1009.13 1009.10 1009.06 1009.00 1008.92 1008.82 1008.73 1008.65 1008.60 1008.59 1008.64 1008.73 1008.85 1008.99 1009.12 1009.21 1009.26 1009.24 1009.15 1009.00 1008.78 1008.54 1008.27 1008.01 1007.77 1007.57 1007.43 1007.34 1007.31 1007.35 1007.44 1007.59 1007.80 1008.05 1008.35 1008.68 1009.05 1009.42 1009.81 1010.19 1010.56 1010.90 1011.22
1008.80 1008.82 1008.84 1008.87 1008.87 1008.86 1008.84 1008.81 1008.78 1008.78 1008.82 1008.90 1009.03 1009.19 1009.37 1009.55 1009.70 1009.81 1009.86 1009.83 1009.73 1009.56 1009.34 1009.08 1008.81 1008.54 1008.29 1008.08 1007.92 1007.82 1007.79 1007.82 1007.91 1008.06 1008.26 1008.51 1008.80 1009.11 1009.44 1009.78 1010.11 1010.44 1010.76 1011.05
1008.48 1008.55 1008.64 1008.73 1008.80 1008.86 1008.89 1008.91 1008.94 1008.98 1009.06 1009.17 1009.32 1009.51 1009.72 1009.93 1010.12 1010.28 1010.37 1010.40 1010.34 1010.22 1010.03 1009.78 1009.51 1009.24 1008.97 1008.74 1008.55 1008.42 1008.35 1008.34 1008.40 1008.52 1008.68 1008.89 1009.13 1009.40 1009.68 1009.97 1010.25 1010.54 1010.81 1011.08
1008.17 1008.31 1008.47 1008.63 1008.76 1008.88 1008.97 1009.04 1009.11 1009.19 1009.29 1009.42 1009.59 1009.80 1010.02 1010.25 1010.47 1010.65 1010.78 1010.84 1010.83 1010.73 1010.57 1010.36 1010.11 1009.85 1009.59 1009.36 1009.17 1009.03 1008.96 1008.95 1009.00 1009.10 1009.25 1009.43 1009.64 1009.86 1010.10 1010.34 1010.58 1010.81 1011.05 1011.28
1007.84 1008.07 1008.31 1008.54 1008.74 1008.92 1009.07 1009.19 1009.30 1009.40 1009.53 1009.68 1009.86 1010.07 1010.30 1010.54 1010.77 1010.97 1011.12 1011.20 1011.21 1011.15 1011.03 1010.84 1010.62 1010.39 1010.15 1009.94 1009.77 1009.65 1009.59 1009.59 1009.64 1009.74 1009.88 1010.05 1010.24 1010.43 1010.63 1010.83 1011.03 1011.22 1011.42 1011.61
1007.47 1007.80 1008.13 1008.44 1008.72 1008.97 1009.17 1009.34 1009.49 1009.63 1009.78 1009.95 1010.14 1010.35 1010.59 1010.83 1011.07 1011.28 1011.44 1011.54 1011.58 1011.55 1011.45 1011.29 1011.10 1010.89 1010.69 1010.50 1010.36 1010.26 1010.22 1010.23 1010.30 1010.40 1010.54 1010.70 1010.87 1011.05 1011.22 1011.38 1011.54 1011.71 1011.86 1012.01
1007.08 1007.51 1007.94 1008.34 1008.70 1009.02 1009.28 1009.50 1009.69 1009.87 1010.04 1010.23 1010.43 1010.66 1010.91 1011.15 1011.40 1011.62 1011.79 1011.91 1011.97 1011.96 1011.88 1011.75 1011.59 1011.41 1011.22 1011.06 1010.94 1010.86 1010.83 1010.85 1010.92 1011.03 1011.17 1011.32 1011.48 1011.64 1011.79 1011.93 1012.06 1012.18 1012.30 1012.40
1006.71 1007.24 1007.76 1008.24 1008.68 1009.06 1009.38 1009.65 1009.89 1010.10 1010.30 1010.51 1010.74 1010.98 1011.23 1011.50 1011.75 1011.98 1012.17 1012.31 1012.38 1012.39 1012.34 1012.23 1012.09 1011.92 1011.76 1011.61 1011.49 1011.42 1011.40 1011.42 1011.49 1011.60 1011.73 1011.87 1012.02 1012.16 1012.29 1012.41 1012.51 1012.59 1012.66 1012.72
1006.40 1007.01 1007.60 1008.15 1008.65 1009.08 1009.45 1009.76 1010.03 1010.28 1010.51 1010.74 1010.99 1011.25 1011.52 1011.80 1012.07 1012.31 1012.52 1012.67 1012.76 1012.79 1012.76 1012.67 1012.54 1012.39 1012.24 1012.10 1011.99 1011.92 1011.89 1011.91 1011.98 1012.07 1012.19 1012.32 1012.46 1012.58 1012.69 1012.78 1012.85 1012.90 1012.93 1012.93
1006.21 1006.86 1007.50 1008.08 1008.61 1009.07 1009.46 1009.80 1010.09 1010.36 1010.61 1010.87 1011.13 1011.41 1011.70 1011.99 1012.27 1012.53 1012.75 1012.92 1013.03 1013.08 1013.06 1012.99 1012.88 1012.75 1012.60 1012.47 1012.37 1012.29 1012.26 1012.28 1012.33 1012.42 1012.52 1012.64 1012.76 1012.87 1012.96 1013.03 1013.07 1013.08 1013.07 1013.02
1006.14 1006.80 1007.43 1008.02 1008.54 1009.00 1009.40 1009.74 1010.04 1010.31 1010.57 1010.84 1011.11 1011.40 1011.70 1012.00 1012.29 1012.56 1012.79 1012.98 1013.10 1013.16 1013.17 1013.12 1013.03 1012.91 1012.78 1012.66 1012.57 1012.50 1012.47 1012.48 1012.53 1012.61 1012.71 1012.82 1012.93 1013.03 1013.10 1013.15 1013.16 1013.14 1013.09 1013.00
1006.17 1006.79 1007.38 1007.94 1008.43 1008.86 1009.24 1009.56 1009.85 1010.12 1010.38 1010.65 1010.92 1011.21 1011.51 1011.81 1012.10 1012.37 1012.61 1012.80 1012.94 1013.01 1013.04 1013.01 1012.94 1012.85 1012.74 1012.64 1012.56 1012.51 1012.50 1012.52 1012.57 1012.65 1012.75 1012.86 1012.97 1013.06 1013.12 1013.15 1013.15 1013.10 1013.02 1012.89
1006.25 1006.80 1007.33 1007.82 1008.26 1008.65 1008.98 1009.28 1009.55 1009.81 1010.06 1010.32 1010.59 1010.87 1011.17 1011.46 1011.74 1012.01 1012.24 1012.43 1012.57 1012.65 1012.69 1012.68 1012.64 1012.58 1012.50 1012.43 1012.39 1012.36 1012.37 1012.41 1012.48 1012.57 1012.68 1012.79 1012.90 1012.99 1013.05 1013.07 1013.06 1012.99 1012.89 1012.74
1006.32 1006.78 1007.23 1007.65 1008.02 1008.36 1008.66 1008.94 1009.19 1009.44 1009.69 1009.94 1010.21 1010.48 1010.76 1011.04 1011.31 1011.56 1011.78 1011.95 1012.09 1012.18 1012.22 1012.23 1012.22 1012.18 1012.15 1012.12 1012.10 1012.11 1012.15 1012.22 1012.31 1012.42 1012.54 1012.67 1012.78 1012.86 1012.92 1012.94 1012.92 1012.85 1012.73 1012.57
1006.31 1006.69 1007.05 1007.40 1007.72 1008.02 1008.30 1008.57 1008.83 1009.08 1009.34 1009.60 1009.88 1010.15 1010.42 1010.69 1010.94 1011.16 1011.36 1011.52 1011.64 1011.72 1011.77 1011.80 1011.80 1011.80 1011.80 1011.81 1011.83 1011.88 1011.95 1012.04 1012.16 1012.28 1012.41 1012.54 1012.65 1012.73 1012.79 1012.80 1012.77 1012.69 1012.56 1012.39
Thickness
5667 5676 5679 5677 5679 5681 5676 5669 5663 5668 5670 5675 5679 5683 5685 5685 5685 5686 5686 5688 5690 5690 5691 5693 5694 5695 5697 5697 5698 5698 5696 5696 5695 5695 5695 5695 5694 5693 5692 5691 5690 5688 5686 5684
5658 5669 5671 5668 5672 5673 5673 5671 5668 5667 5664 5674 5676 5676 5675 5674 5675 5675 5677 5679 5681 5682 5683 5684 5687 5688 5690 5690 5691 5691 5689 5689 5689 5688 5688 5687 5687 5687 5686 5685 5684 5682 5680 5678
5639 5654 5657 5648 5658 5663 5663 5665 5664 5655 5658 5665 5663 5664 5664 5665 5666 5667 5669 5670 5671 5673 5674 5675 5678 5681 5681 5682 5683 5684 5684 5683 5682 5682 5680 5681 5681 5680 5679 5678 5678 5676 5674 5673
5629 5636 5628 5641 5659 5660 5656 5655 5659 5657 5657 5657 5655 5655 5657 5658 5657 5657 5659 5661 5662 5663 5664 5666 5669 5671 5673 5674 5674 5675 5675 5675 5675 5675 5674 5674 5673 5672 5672 5672 5671 5670 5668 5667
5618 5619 5625 5639 5648 5647 5642 5640 5649 5648 5649 5649 5649 5646 5645 5650 5651 5650 5650 5652 5653 5654 5655 5657 5660 5663 5664 5664 5666 5667 5667 5667 5668 5668 5667 5667 5666 5665 5665 5665 5665 5664 5663 5662
5614 5613 5612 5624 5641 5647 5639 5627 5640 5641 5640 5641 5640 5629 5632 5641 5642 5642 5642 5643 5644 5644 5645 5647 5650 5653 5654 5655 5657 5657 5658 5660 5662 5662 5661 5661 5660 5659 5660 5660 5659 5659 5657 5656
5607 5606 5611 5625 5635 5639 5621 5620 5633 5635 5634 5633 5630 5629 5633 5635 5633 5633 5634 5635 5636 5636 5637 5638 5641 5644 5645 5646 5648 5650 5652 5653 5654 5654 5654 5654 5654 5653 5654 5653 5652 5652 5650 5649
5599 5596 5600 5622 5624 5619 5617 5625 5628 5629 5629 5628 5627 5628 5628 5627 5626 5626 5626 5627 5628 5628 5629 5631 5634 5635 5636 5638 5642 5643 5645 5645 5646 5647 5648 5648 5647 5647 5647 5646 5644 5644 5642 5641
5599 5598 5609 5616 5617 5619 5620 5621 5624 5623 5624 5623 5621 5620 5621 5620 5619 5619 5620 5621 5622 5621 5621 5623 5625 5627 5627 5631 5634 5636 5637 5637 5638 5639 5639 5641 5640 5640 5640 5639 5637 5636 5635 5633
5600 5603 5609 5612 5615 5617 5618 5618 5620 5621 5620 5619 5617 5616 5614 5613 5612 5612 5613 5614 5615 5615 5615 5616 5618 5620 5622 5625 5627 5628 5629 5630 5631 5631 5632 5632 5633 5633 5632 5631 5630 5629 5628 5627
5594 5600 5604 5608 5610 5612 5613 5614 5615 5617 5617 5616 5614 5612 5610 5607 5605 5605 5606 5607 5608 5607 5607 5609 5611 5614 5616 5618 5620 5621 5622 5623 5624 5625 5626 5625 5625 5625 5625 5626 5626 5625 5624 5624
5589 5595 5594 5597 5604 5608 5609 5609 5609 5610 5610 5609 5608 5605 5604 5601 5599 5599 5599 5600 5599 5600 5601 5603 5605 5607 5609 5612 5614 5614 5614 5615 5616 5617 5618 5618 5617 5616 5618 5619 5620 5620 5620 5619
5596 5598 5596 5599 5601 5602 5602 5603 5604 5603 5602 5600 5600 5599 5597 5593 5592 5593 5593 5593 5593 5594 5595 5597 5599 5601 5603 5605 5607 5608 5608 5609 5609 5610 5610 5611 5610 5610 5609 5610 5612 5613 5614 5613
5597 5596 5592 5593 5593 5596 5597 5598 5598 5597 5595 5594 5592 5591 5589 5587 5586 5585 5585 5587 5588 5589 5590 5591 5592 5594 5597 5599 5600 5601 5602 5602 5602 5602 5603 5603 5604 5603 5603 5603 5602 5603 5605 5605
5592 5591 5588 5589 5589 5590 5591 5590 5589 5588 5587 5586 5585 5584 5582 5579 5578 5579 5580 5581 5582 5582 5582 5584 5585 5587 5590 5592 5593 5594 5594 5594 5594 5595 5596 5596 5596 5596 5595 5595 5595 5595 5595 5595
5586 5585 5584 5583 5583 5583 5583 5583 5581 5581 5581 5580 5578 5577 5576 5575 5573 5573 5573 5574 5574 5573 5575 5576 5578 5580 5583 5585 5586 5587 5587 5587 5587 5587 5588 5588 5588 5588 5587 5587 5587 5587 5586 5585
5579 5577 5577 5576 5577 5577 5577 5577 5577 5577 5576 5575 5574 5573 5572 5570 5568 5568 5568 5568 5568 5568 5569 5570 5572 5575 5577 5578 5578 5578 5579 5579 5580 5579 5579 5579 5580 5579 5579 5579 5579 5578 5578 5578
5578 5576 5574 5574 5573 5573 5573 5574 5573 5572 5571 5571 5571 5568 5566 5564 5563 5562 5562 5563 5563 5563 5564 5565 5567 5569 5569 5570 5570 5570 5570 5570 5571 5571 5571 5571 5571 5571 5571 5570 5570 5569 5569 5569
5575 5574 5573 5572 5571 5570 5569 5568 5568 5568 5567 5566 5564 5562 5560 5560 5558 5558 5557 5557 5557 5557 5559 5560 5561 5562 5562 5562 5563 5562 5562 5562 5561 5561 5562 5562 5563 5562 5562 5562 5561 5561 5561 5560
5571 5571 5570 5569 5569 5567 5565 5565 5564 5563 5562 5561 5559 5558 5556 5555 5554 5553 5552 5552 5552 5553 5554 5554 5555 5555 5555 5555 5556 5555 5554 5554 5554 5553 5553 5554 5553 5553 5553 5553 5553 5553 5553 5552
5566 5566 5565 5564 5563 5563 5562 5561 5559 5557 5557 5556 5553 5551 5550 5550 5549 5548 5546 5546 5547 5548 5548 5549 5548 5548 5549 5548 5548 5547 5547 5546 5545 5544 5545 5545 5545 5545 5544 5545 5545 5545 5544 5544
5560 5560 5560 5559 5558 5557 5556 5555 5554 5553 5551 5550 5549 5547 5545 5543 5543 5542 5541 5540 5541 5542 5542 5542 5542 5542 5542 5542 5541 5540 5539 5538 5538 5537 5537 5537 5537 5538 5538 5538 5538 5537 5537 5536
5554 5554 5553 5553 5552 5551 5551 5550 5549 5548 5546 5545 5543 5541 5539 5538 5537 5535 5535 5536 5537 5537 5536 5536 5536 5536 5536 5535 5534 5533 5532 5532 5531 5530 5530 5531 5531 5531 5530 5530 5530 5530 5529 5529
5549 5549 5548 5548 5547 5545 5543 5543 5543 5542 5542 5540 5539 5537 5535 5533 5532 5533 5533 5533 5533 5532 5531 5530 5531 5530 5529 5528 5527 5526 5526 5525 5525 5524 5524 5524 5524 5523 5523 5523 5523 5523 5523 5523
5543 5543 5542 5540 5539 5538 5538 5537 5536 5535 5534 5533 5532 5532 5531 5530 5529 5529 5528 5528 5527 5526 5525 5525 5525 5524 5523 5521 5521 5520 5519 5518 5518 5518 5517 5517 5516 5516 5516 5517 5516 5516 5516 5516
5538 5536 5536 5535 5534 5534 5533 5532 5530 5529 5528 5526 5526 5526 5526 5525 5525 5525 5524 5523 5522 5521 5519 5518 5518 5517 5516 5515 5514 5513 5513 5512 5512 5511 5511 5511 5510 5510 5511 5511 5511 5510 5509 5509
5534 5533 5532 5531 5530 5530 5529 5527 5526 5524 5524 5522 5521 5521 5521 5521 5520 5520 5519 5518 5516 5515 5514 5512 5511 5511 5510 5509 5508 5507 5507 5506 5506 5505 5505 5505 5505 5505 5505 5505 5504 5504 5503 5502